Location: Lewisville
(33.0462°N, 96.9942°W)
Time: 22:22:20
(UTC-05:00)

Envisat - Visible Passes

Search period start: 04 October 2023 00:00
Search period end: 14 October 2023 00:00
Orbit: 763 x 764 km, 98.2° (Epoch: 04 October)

Date Brightness Start Highest point End Pass type
(mag) Time Alt. Az. Time Alt. Az. Time Alt. Az.
04 Oct 5.8 03:56:59 10° NE 03:58:15 14° ENE 03:58:15 14° ENE visible
04 Oct 3.5 05:34:28 10° N 05:38:25 40° NW 05:38:25 40° NW visible
05 Oct 3.8 04:57:06 10° NNE 05:00:38 45° NNE 05:00:38 45° NNE visible
05 Oct 4.9 06:39:32 10° NW 06:40:28 10° WNW 06:40:48 10° WNW visible
06 Oct 5.1 04:20:28 10° NE 04:22:52 23° ENE 04:22:52 23° ENE visible
06 Oct 4.1 05:59:36 10° NNW 06:03:02 24° WNW 06:03:02 24° WNW visible
07 Oct 3.6 05:21:43 10° N 05:25:15 42° NNW 05:25:15 42° NNW visible
08 Oct 4.4 04:44:34 10° NNE 04:47:28 33° NE 04:47:28 33° NE visible
08 Oct 4.7 06:25:22 10° NW 06:27:37 14° WNW 06:27:37 14° WNW visible
09 Oct 5.6 04:08:16 10° NE 04:09:40 16° ENE 04:09:40 16° ENE visible
09 Oct 4.0 05:46:39 10° N 05:49:50 29° NW 05:49:50 29° NW visible
10 Oct 4.0 05:09:02 10° N 05:12:03 37° N 05:12:03 37° N visible
11 Oct 5.0 04:32:07 10° NNE 04:34:16 23° NE 04:34:16 23° NE visible
11 Oct 4.5 06:12:00 10° NNW 06:14:25 18° NW 06:14:25 18° NW visible
12 Oct 6.0 03:56:18 10° NE 03:56:28 11° NE 03:56:28 11° NE visible
12 Oct 4.1 05:33:48 10° N 05:36:37 30° NNW 05:36:37 30° NNW visible
13 Oct 4.5 04:56:24 10° NNE 04:58:49 29° NNE 04:58:49 29° NNE visible
13 Oct 5.0 06:38:52 10° NW 06:38:59 10° NW 06:38:59 10° NW visible
